[[{"header":{"parameterUnit":"m.s-1","parameterCategory":1,"la1":30.2991,"la2":30.254,"lo1":-89.0895,"lo2":-89.0444,"dy":0.0017,"dx":0.0017,"nx":28,"ny":28,"refTime":"2025-08-28T09:00:00:Z","depth":0,"parameterNumber":2,"parameterNumberName":"U-component_of_WINDS"},"data":[0,0,0,0,0,0,0,0,0,0,0,0,0,0,0,0,0,0,0,0,0,0,0,0,0,0,0,0,0,0,0,0,0,0,0,0,0,0,0,0,0,0,0,0,0,0,0,0,0,0,0,0,0,0,0,0,0,0,-1.8339,-1.834,0,-1.8422,-1.8423,-1.8424,-1.8452,-1.8451,-1.8451,-1.8451,-1.8531,-1.8533,-1.8536,0,0,0,0,0,0,0,0,0,0,0,0,0,-1.8201,-1.8203,-1.8339,-1.834,-1.8341,-1.8422,-1.8423,-1.8424,-1.8452,-1.8451,-1.8451,-1.845,-1.853,-1.8533,-1.8536,0,0,0,0,0,0,0,0,0,0,0,0,0,-1.827,-1.8204,-1.8339,-1.8365,-1.8368,-1.8421,-1.8423,-1.8424,-1.8452,-1.8451,-1.8451,-1.845,-1.8529,-1.8533,-1.8536,-1.8568,0,0,-1.8547,-1.8549,0,0,0,0,0,0,0,0,-1.8266,-1.8275,-1.836,-1.8363,-1.8367,-1.8426,-1.8403,-1.8472,-1.8452,-1.842,-1.8451,-1.845,-1.8496,-1.8502,-1.8519,-1.8572,-1.8576,-1.8548,-1.855,-1.8551,-1.8552,0,0,0,0,0,0,0,-1.8261,-1.8271,-1.8371,-1.8361,-1.8365,-1.8371,-1.838,-1.8417,-1.8459,-1.8422,-1.8425,-1.8434,-1.8498,-1.8515,-1.8521,-1.8577,-1.8548,-1.8551,-1.8553,-1.8554,-1.866,-1.8661,0,0,0,0,0,0,-1.8252,-1.8267,-1.8369,-1.8374,-1.8314,-1.8374,-1.8384,-1.8407,-1.8459,-1.8467,-1.8435,-1.8435,-1.8509,-1.8516,-1.8524,-1.8565,-1.8551,-1.8555,-1.8557,-1.866,-1.8661,-1.8661,0,0,0,0,0,0,-1.8249,-1.8261,-1.8365,-1.8321,-1.8335,-1.8377,-1.8402,-1.8409,-1.8427,-1.8468,-1.8476,-1.8445,-1.8509,-1.8519,-1.8557,-1.8568,-1.8556,-1.856,-1.8659,-1.866,-1.8661,-1.8647,0,0,0,0,0,0,-1.8245,-1.826,-1.8273,-1.8321,-1.8337,-1.8399,-1.8403,-1.8411,-1.8433,-1.8435,-1.848,-1.8487,-1.8509,-1.8552,-1.8561,-1.8573,-1.8563,-1.8658,-1.866,-1.8661,-1.8647,-1.8647,-1.8648,0,0,0,0,0,-1.824,-1.8265,-1.8274,-1.8286,-1.8355,-1.84,-1.8408,-1.8435,-1.8434,-1.8448,-1.8474,-1.8485,-1.8565,-1.8555,-1.8566,-1.8579,-1.8658,-1.8659,-1.8661,-1.8646,-1.8647,-1.8648,0,0,0,0,0,0,-1.8216,-1.8272,-1.8282,-1.8324,-1.8357,-1.8404,-1.8422,-1.8435,-1.8468,-1.8468,-1.8498,-1.8508,-1.8544,-1.8566,-1.8554,-1.8613,-1.8612,-1.8616,-1.8598,-1.8599,-1.8599,-1.8593,-1.8566,0,0,0,0,0,-1.8216,-1.8248,-1.8295,-1.8327,-1.8343,-1.838,-1.84,-1.8418,-1.8453,-1.8466,-1.8496,-1.8528,-1.856,-1.8581,-1.8613,-1.865,-1.866,-1.8664,-1.8665,-1.8665,-1.8668,-1.8688,-1.8691,-1.8666,-1.8666,-1.8666,0,0,-1.8215,-1.825,-1.8268,-1.8323,-1.8351,-1.8383,-1.8391,-1.8424,-1.8448,-1.8471,-1.851,-1.8532,-1.857,-1.8608,-1.8626,-1.8627,-1.8677,-1.8667,-1.8667,-1.8669,-1.869,-1.8692,-1.8694,-1.8667,-1.8667,-1.8666,0,0,-1.823,-1.826,-1.829,-1.8318,-1.836,-1.8384,-1.8392,-1.8437,-1.8454,-1.8494,-1.8511,-1.8539,-1.8594,-1.862,-1.8641,-1.8666,-1.8677,-1.8676,-1.8679,-1.8699,-1.87,-1.8702,-1.8711,-1.8714,-1.8678,-1.8678,-1.8678,0,-1.8223,-1.8273,-1.8303,-1.8336,-1.8359,-1.8383,-1.8413,-1.8438,-1.8488,-1.8503,-1.8504,-1.8574,-1.8601,-1.8645,-1.8652,-1.8668,-1.8676,-1.867,-1.8698,-1.87,-1.8702,-1.8711,-1.8714,-1.8678,-1.8678,-1.8678,-1.8678,0,-1.8263,-1.8297,-1.8316,-1.8365,-1.8391,-1.8422,-1.8455,-1.8477,-1.8493,-1.8517,-1.8557,-1.859,-1.8629,-1.8641,-1.8656,-1.8688,-1.8687,-1.8692,-1.8692,-1.8704,-1.8712,-1.8716,-1.8677,-1.8677,-1.8677,-1.8677,0,0,-1.8264,-1.833,-1.8337,-1.8359,-1.8408,-1.8435,-1.8466,-1.8506,-1.8524,-1.8558,-1.8585,-1.8631,-1.8637,-1.866,-1.8678,-1.8696,-1.8713,-1.8699,-1.87,-1.87,-1.8749,-1.8744,-1.8748,-1.8721,-1.8722,-1.8723,-1.8746,0,-1.8285,-1.8344,-1.8372,-1.8419,-1.845,-1.8474,-1.8501,-1.8533,-1.8556,-1.8586,-1.861,-1.8643,-1.8648,-1.8662,-1.8681,-1.8707,-1.8723,-1.8706,-1.8745,-1.8746,-1.8734,-1.8752,-1.8747,-1.8768,-1.8749,-1.875,-1.875,0,-1.8317,-1.8352,-1.8402,-1.8447,-1.8462,-1.8486,-1.8525,-1.8553,-1.859,-1.8605,-1.8631,-1.8649,-1.8682,-1.868,-1.8726,-1.8713,-1.8731,-1.8746,-1.8748,-1.8752,-1.8748,-1.8756,-1.8775,-1.8778,-1.8756,-1.8756,-1.8755,0,-1.8312,-1.8372,-1.841,-1.8428,-1.8482,-1.8499,-1.8522,-1.8558,-1.858,-1.8614,-1.8628,-1.8665,-1.8684,-1.8712,-1.8738,-1.8735,-1.8781,-1.8781,-1.8793,-1.8793,-1.8801,-1.88,-1.8823,-1.8814,-1.8814,-1.8814,-1.8814,0,-1.8332,-1.8361,-1.8408,-1.8431,-1.8465,-1.8496,-1.8528,-1.8553,-1.8585,-1.8612,-1.8634,-1.8659,-1.8693,-1.8722,-1.8743,-1.8777,-1.8786,-1.8798,-1.8803,-1.8796,-1.8794,-1.8807,-1.8806,-1.8815,-1.8814,-1.8814,-1.8814,0,-1.8332,-1.8365,-1.8407,-1.8455,-1.8468,-1.849,-1.8531,-1.8553,-1.8578,-1.8612,-1.8622,-1.866,-1.8695,-1.8725,-1.877,-1.8784,-1.8819,-1.8826,-1.8807,-1.881,-1.882,-1.8819,-1.8851,-1.8857,-1.8845,-1.8845,-1.8845,0,-1.8342,-1.8366,-1.8417,-1.8437,-1.846,-1.8493,-1.8516,-1.8548,-1.8571,-1.8615,-1.8632,-1.8669,-1.87,-1.8755,-1.8786,-1.8821,-1.8828,-1.8837,-1.8833,-1.8825,-1.8827,-1.8825,-1.8827,-1.8836,-1.8836,-1.8836,-1.8836,0,-1.8357,-1.8372,-1.8406,-1.8445,-1.8472,-1.8504,-1.8537,-1.8552,-1.859,-1.8614,-1.8651,-1.8676,-1.8723,-1.8759,-1.8798,-1.882,-1.8834,-1.8838,-1.8842,-1.8835,-1.8823,-1.8829,-1.8807,-1.8836,-1.8836,-1.8836,-1.8836,-1.8836,-1.8362,-1.8384,-1.8423,-1.846,-1.8488,-1.8518,-1.8542,-1.857,-1.8602,-1.8644,-1.866,-1.8698,-1.8734,-1.8787,-1.8809,-1.8838,-1.884,-1.8847,-1.8848,-1.8849,-1.8848,-1.8819,-1.8845,-1.8845,-1.8845,-1.8845,-1.8845,0,-1.8377,-1.8404,-1.8437,-1.8483,-1.8511,-1.8524,-1.8561,-1.8583,-1.8617,-1.865,-1.868,-1.8723,-1.8758,-1.8792,-1.8828,-1.8845,-1.8852,-1.8853,-1.8852,-1.8857,-1.8845,-1.8837,-1.8847,-1.8847,-1.8847,-1.8847,-1.8847,-1.8847,-1.8388,-1.8426,-1.8446,-1.8498,-1.8524,-1.8562,-1.8582,-1.8609,-1.8636,-1.8683,-1.8713,-1.8735,-1.8768,-1.8807,-1.884,-1.8849,-1.8861,-1.886,-1.8871,-1.8858,-1.8858,-1.8857,-1.885,-1.8863,-1.8863,-1.8881,-1.8881,-1.8881]},{"header":{"parameterUnit":"m.s-1","parameterCategory":1,"la1":30.2991,"la2":30.254,"lo1":-89.0895,"lo2":-89.0444,"dy":0.0017,"dx":0.0017,"nx":28,"ny":28,"refTime":"2025-08-28T09:00:00:Z","depth":0,"parameterNumber":3,"parameterNumberName":"V-component_of_WINDS"},"data":[0,0,0,0,0,0,0,0,0,0,0,0,0,0,0,0,0,0,0,0,0,0,0,0,0,0,0,0,0,0,0,0,0,0,0,0,0,0,0,0,0,0,0,0,0,0,0,0,0,0,0,0,0,0,0,0,0,0,-1.2499,-1.25,0,-1.2594,-1.2595,-1.2596,-1.2647,-1.2647,-1.2648,-1.2648,-1.2743,-1.2746,-1.2748,0,0,0,0,0,0,0,0,0,0,0,0,0,-1.2359,-1.2361,-1.2498,-1.25,-1.2501,-1.2594,-1.2595,-1.2596,-1.2647,-1.2647,-1.2648,-1.2648,-1.2742,-1.2745,-1.2748,0,0,0,0,0,0,0,0,0,0,0,0,0,-1.2433,-1.2362,-1.2498,-1.2538,-1.2542,-1.2593,-1.2595,-1.2597,-1.2647,-1.2648,-1.2648,-1.2648,-1.2741,-1.2745,-1.2749,-1.2767,0,0,-1.276,-1.2761,0,0,0,0,0,0,0,0,-1.2429,-1.2438,-1.2531,-1.2535,-1.254,-1.2609,-1.2581,-1.2654,-1.2647,-1.2607,-1.2648,-1.2648,-1.2698,-1.2705,-1.2723,-1.2772,-1.2776,-1.276,-1.2762,-1.2764,-1.2765,0,0,0,0,0,0,0,-1.2424,-1.2435,-1.2536,-1.2532,-1.2538,-1.255,-1.2561,-1.2595,-1.265,-1.2611,-1.2615,-1.2625,-1.2701,-1.2719,-1.2725,-1.2777,-1.276,-1.2763,-1.2765,-1.2767,-1.2846,-1.2846,0,0,0,0,0,0,-1.2413,-1.243,-1.2533,-1.2539,-1.2484,-1.2552,-1.2564,-1.2587,-1.265,-1.266,-1.2625,-1.2627,-1.2713,-1.2721,-1.2729,-1.2755,-1.2764,-1.2767,-1.2769,-1.2847,-1.2846,-1.2846,0,0,0,0,0,0,-1.2409,-1.2421,-1.2529,-1.2486,-1.25,-1.2555,-1.2579,-1.2588,-1.2607,-1.2661,-1.2671,-1.2634,-1.2713,-1.2724,-1.2758,-1.2759,-1.2769,-1.2772,-1.2847,-1.2847,-1.2846,-1.2807,0,0,0,0,0,0,-1.2405,-1.242,-1.2428,-1.2485,-1.2502,-1.2557,-1.2579,-1.259,-1.2613,-1.2617,-1.2672,-1.2681,-1.2714,-1.2752,-1.2761,-1.2764,-1.2775,-1.2847,-1.2847,-1.2846,-1.2809,-1.2806,-1.2804,0,0,0,0,0,-1.24,-1.2413,-1.2428,-1.244,-1.2514,-1.2557,-1.2566,-1.2605,-1.2613,-1.2622,-1.2656,-1.2679,-1.2758,-1.2755,-1.2766,-1.277,-1.2847,-1.2847,-1.2846,-1.281,-1.2807,-1.2804,0,0,0,0,0,0,-1.2353,-1.2421,-1.2439,-1.2471,-1.2508,-1.2565,-1.2577,-1.26,-1.2635,-1.2637,-1.2682,-1.2694,-1.2724,-1.275,-1.2746,-1.2792,-1.2805,-1.2807,-1.2773,-1.277,-1.2768,-1.276,-1.2778,0,0,0,0,0,-1.2347,-1.2377,-1.2434,-1.2457,-1.2474,-1.2522,-1.2542,-1.2569,-1.2609,-1.2624,-1.2662,-1.2699,-1.2732,-1.2753,-1.2786,-1.2813,-1.2826,-1.2821,-1.2819,-1.2816,-1.2817,-1.2833,-1.2832,-1.2846,-1.2846,-1.2846,0,0,-1.2334,-1.2374,-1.239,-1.2448,-1.248,-1.2509,-1.2535,-1.2565,-1.2587,-1.2629,-1.2663,-1.2692,-1.2736,-1.2767,-1.2782,-1.279,-1.2816,-1.2816,-1.2814,-1.2816,-1.2833,-1.2832,-1.2831,-1.2846,-1.2846,-1.2846,0,0,-1.2324,-1.2358,-1.2381,-1.2412,-1.246,-1.2492,-1.2497,-1.2552,-1.2573,-1.2608,-1.264,-1.2666,-1.2722,-1.2753,-1.2776,-1.2778,-1.28,-1.2787,-1.2774,-1.2789,-1.2788,-1.2787,-1.2787,-1.2787,-1.2788,-1.2788,-1.2788,0,-1.2302,-1.2348,-1.2389,-1.2418,-1.2442,-1.2482,-1.2505,-1.2533,-1.2589,-1.2604,-1.2613,-1.2684,-1.2717,-1.2755,-1.2755,-1.2772,-1.2779,-1.2781,-1.2785,-1.2784,-1.2784,-1.2785,-1.2785,-1.2786,-1.2787,-1.2787,-1.2787,0,-1.2317,-1.2348,-1.2361,-1.2414,-1.244,-1.2465,-1.251,-1.2531,-1.2556,-1.2586,-1.2622,-1.2662,-1.2705,-1.2716,-1.2739,-1.2757,-1.276,-1.2776,-1.279,-1.278,-1.2782,-1.2783,-1.2784,-1.2784,-1.2785,-1.2785,0,0,-1.228,-1.2358,-1.2361,-1.2386,-1.2442,-1.2467,-1.2494,-1.2536,-1.2553,-1.259,-1.2613,-1.266,-1.2675,-1.27,-1.2728,-1.2741,-1.274,-1.2755,-1.2757,-1.2751,-1.2761,-1.2749,-1.2749,-1.2755,-1.2756,-1.2756,-1.2758,0,-1.2279,-1.233,-1.2368,-1.2404,-1.2433,-1.2472,-1.2495,-1.2532,-1.2561,-1.259,-1.2622,-1.2654,-1.2672,-1.2687,-1.2702,-1.2737,-1.2743,-1.2737,-1.2777,-1.2778,-1.2764,-1.275,-1.2737,-1.2736,-1.2759,-1.2759,-1.2759,0,-1.2284,-1.232,-1.2359,-1.2412,-1.2426,-1.2446,-1.2488,-1.2515,-1.2557,-1.2578,-1.2606,-1.2635,-1.2664,-1.2676,-1.2717,-1.2712,-1.2731,-1.275,-1.2751,-1.2756,-1.2767,-1.2754,-1.2737,-1.2737,-1.276,-1.276,-1.276,0,-1.2252,-1.2311,-1.2342,-1.2363,-1.2425,-1.2439,-1.2465,-1.2508,-1.2531,-1.2567,-1.2582,-1.2621,-1.2642,-1.2671,-1.2709,-1.2714,-1.2746,-1.276,-1.2763,-1.2762,-1.2768,-1.2767,-1.2753,-1.278,-1.278,-1.278,-1.278,0,-1.2246,-1.2268,-1.2329,-1.2348,-1.2374,-1.2418,-1.2442,-1.2472,-1.2509,-1.2534,-1.257,-1.2592,-1.2642,-1.267,-1.27,-1.2729,-1.2738,-1.2755,-1.2763,-1.2752,-1.275,-1.2764,-1.2765,-1.278,-1.278,-1.278,-1.278,0,-1.2215,-1.2257,-1.2293,-1.235,-1.2365,-1.2381,-1.243,-1.2449,-1.2481,-1.2512,-1.2522,-1.2571,-1.2607,-1.2648,-1.2696,-1.2716,-1.2743,-1.2754,-1.2729,-1.2733,-1.2733,-1.2732,-1.2729,-1.273,-1.2756,-1.2755,-1.2755,0,-1.2208,-1.2226,-1.2285,-1.2305,-1.2331,-1.2362,-1.2386,-1.2429,-1.2452,-1.2502,-1.2515,-1.2553,-1.2586,-1.2641,-1.268,-1.2718,-1.273,-1.2726,-1.2736,-1.2724,-1.2729,-1.2728,-1.2729,-1.2723,-1.2723,-1.2722,-1.2722,0,-1.2191,-1.2211,-1.2244,-1.2285,-1.2312,-1.2346,-1.2381,-1.2395,-1.2446,-1.247,-1.2507,-1.2532,-1.2582,-1.2619,-1.2661,-1.2688,-1.2713,-1.2719,-1.2721,-1.271,-1.2694,-1.2702,-1.2721,-1.2718,-1.2719,-1.2719,-1.2719,-1.2719,-1.2172,-1.219,-1.2234,-1.227,-1.2301,-1.2333,-1.2354,-1.2389,-1.2421,-1.2465,-1.2489,-1.2525,-1.2567,-1.2626,-1.2652,-1.2681,-1.269,-1.2693,-1.2694,-1.2694,-1.2691,-1.269,-1.2689,-1.2689,-1.2689,-1.2689,-1.2689,0,-1.2156,-1.2186,-1.2219,-1.2267,-1.2295,-1.2318,-1.2358,-1.2379,-1.2411,-1.2448,-1.248,-1.2522,-1.2559,-1.2601,-1.264,-1.2655,-1.2667,-1.2664,-1.2663,-1.2668,-1.2681,-1.2675,-1.2653,-1.2653,-1.2653,-1.2653,-1.2653,-1.2653,-1.2151,-1.2182,-1.2207,-1.2254,-1.2285,-1.2321,-1.2342,-1.2372,-1.2402,-1.2447,-1.2478,-1.2506,-1.2546,-1.2588,-1.2622,-1.2634,-1.2646,-1.2639,-1.2654,-1.2664,-1.2668,-1.2671,-1.2665,-1.2641,-1.2641,-1.2639,-1.2639,-1.2639]}]]